Regional Weather Roundup
Issued by NWS Kansas City/Pleasant Hill, MO

Home | Current Version | Previous Version | Graphics & Text | Print | Product List | Glossary Off
Versions: 1 2 3 4 5 6 7 8 9 10 11 12 13 14 15 16 17 18 19 20 21 22 23 24 25 26 27

000
ASUS43 KEAX 192210
RWREAX

WEATHER ROUNDUP FOR EASTERN KANSAS AND NORTHWEST MISSOURI
NATIONAL WEATHER SERVICE KANSAS CITY/PLEASANT HILL MO
400 PM CST THU JAN 19 2017

KSZ040-057-103>105-MOZ028-029-037-043-192300-
...KANSAS CITY METROPOLITAN AREA...

CITY           SKY/WX    TMP DP  RH WIND       PRES   REMARKS
K.C. INTL      CLOUDY    48  44  86 S3        29.66F
K.C. DOWNTOWN  CLOUDY    50  46  86 S5        29.66F
LEES SUMMIT    CLOUDY    49  47  93 SE3       29.66F
OLATHE - IXD   CLOUDY    48  46  93 SE7       29.66F FOG
OLATHE - OJC   FOG       46  46 100 SE5       29.66F VSB 1/2
LAWRENCE       CLOUDY    48  46  93 E6        29.66F

$$

MOZ001>008-011>017-020>025-030>033-038>040-044>046-053-054-192300-
...NORTHERN AND CENTRAL MISSOURI...

CITY           SKY/WX    TMP DP  RH WIND       PRES   REMARKS
ST. JOSEPH     CLOUDY    48  46  93 SE9       29.67S
MOSBY          CLOUDY    48  46  93 CALM      29.66F
WARRENSBURG    CLOUDY    50  45  81 CALM      29.67S
WHITEMAN AFB   CLOUDY    50  50 100 SE3       29.65F
CLINTON        CLOUDY    50  48  93 S5        29.68S
SEDALIA        CLOUDY    52  47  83 E3        29.68F
WARSAW         NOT AVBL
CHILLICOTHE      N/A     46  45  96 E3        29.69F
KIRKSVILLE     FOG       44  44 100 NE3       29.71S VSB 1/4

$$

MOZ041-047>049-056>058-063>065-088>090-097-192300-
...EASTERN AND SOUTHERN MISSOURI...

CITY           SKY/WX    TMP DP  RH WIND       PRES   REMARKS
ST. LOUIS INTL FOG       47  45  93 E9        29.72S VSB 1/2
SPIRIT OF STL  CLOUDY    47  47 100 E6        29.70F FOG
COLUMBIA       CLOUDY    48  47  96 CALM      29.69S FOG
JEFFERSON CITY CLOUDY    49  47  93 CALM      29.70S
ROLLA          FOG       50  50 100 MISG      29.66F VSB 3/4
OSAGE BEACH    CLOUDY    51  48  89 CALM      29.68F
SPRINGFIELD    CLOUDY    53  50  89 S6        29.65F
BRANSON        PTSUNNY   52  48  87 SE7       29.67F
JOPLIN         CLOUDY    54  48  80 S9        29.65F
WEST PLAINS    FOG       50  50 100 CALM      29.68F VSB 1/4

$$

IAZ060-094-KSZ022-034>040-054-083-096-NEZ052-066-093-192300-
...KANSAS...SOUTHEAST NEBRASKA AND IOWA...

CITY           SKY/WX    TMP DP  RH WIND       PRES   REMARKS
TOPEKA         CLOUDY    48  45  89 SE6       29.65F
MANHATTAN      CLOUDY    47  44  90 SE6       29.63F
EMPORIA        CLOUDY    46  45  96 SE14      29.62S FOG
CHANUTE        CLOUDY    51  47  86 SE9       29.63F
WICHITA        CLOUDY    51  45  79 E13       29.58S
OMAHA          CLOUDY    43  39  86 S8        29.67S FOG
LINCOLN        CLOUDY    42  41  96 S3        29.66S FOG
FALLS CITY     CLOUDY    45  44  97 S7        29.65F
LAMONI         FOG       44  43  96 E5        29.68R VSB 1/4
DES MOINES     FOG       39  38  96 E7        29.71R VSB 1/2 WCI  34

$$





USA.gov is the U.S. government's official web portal to all federal, state and local government web resources and services.